Weather History for Fort Belvoir, VA

Change the Weather History Date:

Sunday, November 10, 2013

  Actual Average Record
Temperature  
Mean Temperature 49 °F -  
Max Temperature 66 °F 57 °F 78 °F (1999)
Min Temperature 32 °F 35 °F 23 °F (2003)
Degree Days  
Heating Degree Days 16    
Moisture  
Dew Point 29 °F    
Average Humidity 54    
Maximum Humidity 92    
Minimum Humidity 24    
Precipitation  
Precipitation 0.00 in - - ()
Sea Level Pressure  
Sea Level Pressure 30.10 in    
Wind  
Wind Speed 5 mph (WNW)    
Max Wind Speed 22 mph    
Max Gust Speed 32 mph    
Visibility 10 miles    
Events      
Averages and records for this station are not official NWS values.
T = Trace of Precipitation, MM = Missing Value Source: NWS Daily Summary

Daily Weather History Graph

Daily Weather History Graph

Search for Another Location

Airport:

Trip Planner

Search our weather history database for the weather conditions in past years. The results will help you decide how hot, cold, wet, or windy it might be!

Date:

Astronomy

Nov. 10, 2013 Rise Set
Actual Time 6:45 AM EST 4:59 PM EST
Civil Twilight 6:17 AM EST 5:27 PM EST
Nautical Twilight 5:45 AM EST 5:59 PM EST
Astronomical Twilight 5:14 AM EST 6:30 PM EST
Moon 12:59 PM EST (11/10) No Moon Set
Length of Visible Light 11h 09m
Length of Day
10h 13m
First Quarter, 55% of the Moon is Illuminated
Nov 10
First Quarter
Nov 17
Full
Nov 25
Last Quarter
Dec 2
New
Dec 9
First Quarter

Hourly Weather History & Observations

Time (EST) Temp. Windchill Dew Point Humidity Pressure Visibility Wind Dir Wind Speed Gust Speed Precip Events Conditions
12:58 AM 37.6 °F - 30.6 °F 76% 30.06 in 10.0 mi Calm Calm - N/A   Clear
1:58 AM 36.5 °F - 29.8 °F 77% 30.06 in 10.0 mi NW 1.2 mph - N/A   Clear
2:58 AM 35.2 °F - 30.7 °F 84% 30.06 in 10.0 mi Calm Calm - N/A   Scattered Clouds
3:58 AM 33.8 °F - 30.6 °F 88% 30.04 in 10.0 mi NW 1.2 mph - N/A   Clear
4:58 AM 33.6 °F - 30.9 °F 90% 30.04 in 10.0 mi NW 1.2 mph - N/A   Clear
5:58 AM 33.6 °F - 30.9 °F 90% 30.05 in 10.0 mi NW 1.2 mph - N/A   Clear
6:58 AM 32.7 °F - 30.7 °F 92% 30.06 in 10.0 mi NW 2.3 mph - N/A   Clear
7:58 AM 37.2 °F - 32.5 °F 83% 30.06 in 10.0 mi NW 1.2 mph - N/A   Clear
8:58 AM 54.0 °F - 31.1 °F 42% 30.05 in 10.0 mi SW 4.6 mph - N/A   Clear
9:58 AM 60.6 °F - 33.1 °F 36% 30.02 in 10.0 mi SW 6.9 mph - N/A   Clear
10:58 AM 63.7 °F - 32.0 °F 31% 30.00 in 10.0 mi West 9.2 mph - N/A   Clear
11:58 AM 64.8 °F - 29.1 °F 26% 29.99 in 10.0 mi West 15.0 mph 23.0 mph N/A   Clear
12:58 PM 66.0 °F - 28.6 °F 25% 29.97 in 10.0 mi West 16.1 mph 21.9 mph N/A   Clear
1:58 PM 65.1 °F - 27.3 °F 24% 29.99 in 10.0 mi NW 16.1 mph 25.3 mph N/A   Clear
2:58 PM 61.9 °F - 28.9 °F 29% 30.02 in 10.0 mi NW 16.1 mph 29.9 mph N/A   Clear
3:58 PM 59.0 °F - 26.4 °F 29% 30.07 in 10.0 mi NW 18.4 mph 27.6 mph N/A   Clear
4:58 PM 55.0 °F - 23.7 °F 30% 30.10 in 10.0 mi NW 21.9 mph 29.9 mph N/A   Clear
5:58 PM 52.9 °F - 24.1 °F 33% 30.17 in 10.0 mi NW 16.1 mph 32.2 mph N/A   Clear
6:58 PM 50.2 °F - 25.0 °F 37% 30.21 in 10.0 mi WNW 10.4 mph 27.6 mph N/A   Clear
7:58 PM 48.6 °F - 23.9 °F 38% 30.24 in 10.0 mi NW 5.8 mph - N/A   Clear
8:58 PM 46.8 °F - 24.3 °F 41% 30.25 in 10.0 mi West 6.9 mph - N/A   Partly Cloudy
9:58 PM 42.6 °F 38.4 °F 27.5 °F 55% 30.26 in 10.0 mi WNW 6.9 mph - N/A   Mostly Cloudy
10:58 PM 37.2 °F 33.6 °F 27.0 °F 66% 30.26 in 10.0 mi ESE 4.6 mph - N/A   Clear
11:58 PM 37.2 °F - 27.7 °F 68% 30.27 in 10.0 mi East 1.2 mph - N/A   Clear